Tracking 22287 objects as of 27-Jan-2021
HD Live streaming from Space Station
objects crossing your sky now

COSMOS 2209

Track COSMOS 2209 now!
COSMOS 2209 is classified as:


NORAD ID: 22112
Int'l Code: 1992-059A
Perigee: 35,738.3 km
Apogee: 35,829.7 km
Inclination: 14.8 °
Period: 1,435.6 minutes
Semi major axis: 42154 km
RCS: 5.0119 m2 (large)
Launch date: September 10, 1992
Source: Commonwealth of Independent States (former USSR) (CIS)
Launch site: TYURATAM MISSILE AND SPACE COMPLEX (TTMTR)
aabbcc
Your satellite tracking list
Your tracking list is empty




NASA's NSSDC Master Catalog

Two Line Element Set (TLE):
1 22112U 92059A   21027.22096137 -.00000234  00000-0  00000-0 0  9995
2 22112  14.8164 358.2229 0010831 314.2097 221.3368  1.00306534103892
Source of the keplerian elements: AFSPC